Location: Rye
(30.7294°N, 96.4902°W)
Time: 17:00:01
(UTC+00:00)

Tiros 1 despin weight - Pass Details

Date: 08 December 2025
Orbit: 557 x 596 km, 48.2° (Epoch: 10 January)

Event Time Altitude Azimuth Distance (km) Brightness Sun altitude
Rises 02:09:47 0° 267° (W) 2,767 ? -34.7°
Reaches altitude 10° 02:12:34 10° 284° (WNW) 1,863 ? -35.3°
Enters shadow 02:13:14 13° 291° (WNW) 1,684 ? -35.5°
